Home   Weather   Greater Sudbury   Past weeks

Flag for Canada Past Weather in Greater Sudbury, Ontario, Canada — Yesterday and Last 2 Weeks

Now
52 °F

Passing clouds.


Feels Like: 48 °F
Forecast: 53 / 64 °F
Wind: 10 mph from Northeast

Location: Sudbury

Current Time: Oct 1, 2016 at 6:26:30 AM

Latest Report: Oct 1, 2016 at 6:00 AM


Visibility: 15 mi

Pressure: 30.29 "Hg

Humidity: 82%

Dew Point: 46 °F

Location of Greater SudburyLocation

Past Weather in Greater Sudbury — Graph

°F

Greater Sudbury Temperature Yesterday

Maximum temperature yesterday: 64 °F (at 2:00 PM)
Minimum temperature yesterday: 50 °F (at 7:00 AM)
Average temperature yesterday: 57 °F

High & Low Weather Summary for the Past Weeks

 TemperatureHumidityPressure
High73 °F (Sep 19, 1:00 PM)100% (Sep 17, 5:00 AM)30.50 "Hg (Sep 17, 5:00 AM)
Low36 °F (Sep 24, 6:00 AM)36% (Sep 20, 5:00 PM)29.62 "Hg (Sep 27, 6:00 AM)
Average57 °F81%30.09 "Hg
* Reported Sep 16 5:00 AM — Oct 1 5:00 AM, Greater Sudbury, Weather by CustomWeather, © 2016

Note: Actual official high and low records may vary slightly from our data, if they occured in-between our weather recording intervals... More about our weather records

Advertising

Greater Sudbury Weather History for the Previous 24 Hours

Scroll right to see more
 ConditionsComfort  
Time TempWeatherWind HumidityBarometerVisibility
5:00 AM
Sat, Oct 1
52 °FPassing clouds.10 mph82%30.29 "Hg15 mi
4:00 AM52 °FPassing clouds.9 mph82%30.30 "Hg15 mi
3:00 AM54 °FPassing clouds.8 mph77%30.31 "Hg15 mi
2:00 AM54 °FPassing clouds.7 mph77%30.32 "Hg15 mi
1:00 AM54 °FPassing clouds.8 mph77%30.33 "Hg15 mi
12:00 AM54 °FPartly cloudy.8 mph72%30.35 "Hg15 mi
11:00 PM
Fri, Sep 30
55 °FPartly cloudy.9 mph72%30.34 "Hg15 mi
10:00 PM55 °FPartly cloudy.8 mph77%30.37 "Hg15 mi
9:00 PM55 °FPartly cloudy.8 mph77%30.38 "Hg15 mi
8:00 PM57 °FPassing clouds.9 mph67%30.39 "Hg15 mi
7:00 PM59 °FPartly sunny.8 mph63%30.39 "Hg20 mi
6:00 PM61 °FBroken clouds.9 mph55%30.38 "Hg20 mi
5:00 PM64 °FBroken clouds.16 mph46%30.38 "Hg20 mi
4:00 PM64 °FBroken clouds.15 mph49%30.39 "Hg20 mi
3:00 PM64 °FPartly sunny.17 mph52%30.40 "Hg20 mi
2:00 PM64 °FBroken clouds.13 mph49%30.42 "Hg20 mi
1:00 PM63 °FBroken clouds.13 mph59%30.44 "Hg20 mi
12:00 PM61 °FBroken clouds.14 mph63%30.45 "Hg20 mi
11:00 AM59 °FBroken clouds.12 mph68%30.47 "Hg20 mi
10:00 AM54 °FBroken clouds.10 mph82%30.47 "Hg20 mi
9:00 AM52 °FBroken clouds.12 mph88%30.47 "Hg20 mi
8:00 AM52 °FPartly sunny.10 mph88%30.47 "Hg20 mi
7:00 AM50 °FPassing clouds.10 mph94%30.47 "Hg20 mi
6:00 AM52 °FPassing clouds.12 mph88%30.45 "Hg15 mi
Weather by CustomWeather, © 2016

See weather overviewHow to use our weather pages